Location: Palomar Mountain Lodge
(33.3110°N, 116.8495°W)
Time: 16:15:41
(UTC-07:00)

Helios 1B rocket - Pass Details

Date: 12 July 2018
Orbit: 575 x 586 km, 98.2° (Epoch: 17 July)

Event Time Altitude Azimuth Distance (km) Brightness Sun altitude
Rises 22:43:09 0° 7° (N) 2,787 6.6 -26.7°
Reaches altitude 10° 22:45:19 10° 4° (N) 1,886 5.7 -27.0°
Enters shadow 22:48:32 49° 333° (NNW) 749 3.3 -27.4°
